SBIRS GEO-1 (USA 230)

Last updated on Wed Sep 09 2026 00:02:59 GMT+0000 (Coordinated Universal Time)

1 37481U 11019A 26251.45521987 .00000081 00000+0 00000+0 0 9999 2 37481 4.7174 53.0022 0001741 116.9996 33.2106 1.00272270 56236
UTC large
Height (km)
Speed (km/s)
/
Latitude / Longitude
Inclination (degrees)
Orbital Period (minutes)
Azimuth
Elevation
Range (km)
Doppler Factor

Next 0 passes for location: London (51.5072 / 0.1276)

No passes found over London.
SBIRS GEO-1 (USA 230)